GW5801 Weather Reports


time (UTC)temp
C
wind
direction
speed
KPH
gust
KPH
rain 1hr
cm
rain 24hr
cm
rain mn
cm
humidity
%
barometer
mb
20260505140616 25 159 0.0 3.2 0.00 0.00 0.00 86 1010.2
20260505140113 25 248 6.4 6.4 0.00 0.00 0.00 86 1010.1
20260505125030 23 118 0.0 6.4 0.00 0.00 0.00 89 1009.9
20260505124526 23 257 0.0 0.0 0.00 0.00 0.00 89 1009.8
20260505124022 23 194 1.6 3.2 0.00 0.00 0.00 89 1009.6
20260505123519 23 295 1.6 6.4 0.00 0.00 0.00 88 1009.6
20260505123015 23 141 0.0 3.2 0.00 0.00 0.00 88 1009.4
20260505122513 23 160 1.6 6.4 0.00 0.00 0.00 88 1009.4
20260505122009 23 185 0.0 4.8 0.00 0.00 0.00 88 1009.2
20260505121506 23 232 3.2 6.4 0.00 0.00 0.00 88 1009.3
20260505121002 23 233 0.0 1.6 0.00 0.00 0.00 89 1009.6
20260505120459 23 211 1.6 3.2 0.00 0.00 0.00 89 1009.6
20260505115958 23 237 0.0 0.0 0.00 0.00 0.00 89 1009.8
20260505115454 23 236 1.6 4.8 0.00 0.00 0.00 89 1009.6
20260505114952 23 212 1.6 3.2 0.00 0.00 0.00 89 1009.5
20260505114448 23 165 1.6 6.4 0.00 0.00 0.00 89 1009.3
20260505113945 23 115 0.0 3.2 0.00 0.00 0.00 89 1009.4
20260505113441 22 201 1.6 4.8 0.00 0.00 0.00 89 1009.5
20260505112937 22 181 1.6 3.2 0.00 0.00 0.00 89 1009.3
20260505112435 22 223 1.6 4.8 0.00 0.00 0.00 89 1009.3
20260505111931 22 201 0.0 3.2 0.00 0.00 0.00 89 1009.5
20260505111426 23 246 1.6 3.2 0.00 0.00 0.00 88 1009.5
20260505110923 23 238 1.6 3.2 0.00 0.00 0.00 88 1009.6
20260505110419 23 179 0.0 1.6 0.00 0.00 0.00 88 1009.7
20260505101850 22 198 0.0 3.2 0.00 0.00 0.00 88 1009.5
20260505101345 22 216 0.0 4.8 0.00 0.00 0.00 88 1009.4
20260505100841 22 196 0.0 3.2 0.00 0.00 0.00 87 1009.3
20260505100338 22 182 0.0 1.6 0.00 0.00 0.00 87 1009.2
20260505095833 22 218 0.0 3.2 0.00 0.00 0.00 87 1009.2
20260505095331 22 202 1.6 3.2 0.00 0.00 0.00 87 1009.5
20260505094827 22 176 1.6 4.8 0.00 0.00 0.00 87 1009.3
20260505094324 22 228 1.6 4.8 0.00 0.00 0.00 88 1009.5
20260505093820 22 226 3.2 4.8 0.00 0.00 0.00 88 1009.7
20260505093318 22 208 0.0 1.6 0.00 0.00 0.00 88 1009.9
20260505092814 22 205 1.6 1.6 0.00 0.00 0.00 88 1009.8
20260505092313 22 206 0.0 3.2 0.00 0.00 0.00 87 1009.7
20260505091810 22 229 0.0 1.6 0.00 0.00 0.00 87 1009.6
20260505091308 22 223 1.6 3.2 0.00 0.00 0.00 87 1009.6
20260505090805 22 207 1.6 3.2 0.00 0.00 0.00 87 1009.7
20260505090303 22 207 0.0 1.6 0.00 0.00 0.00 86 1009.9
20260505085800 22 186 0.0 3.2 0.00 0.00 0.00 86 1009.8
20260505085258 23 232 0.0 4.8 0.00 0.00 0.00 86 1009.6
20260505084756 23 215 0.0 1.6 0.00 0.00 0.00 86 1009.8
20260505084255 23 164 1.6 3.2 0.00 0.00 0.00 85 1009.7
20260505083751 23 166 3.2 3.2 0.00 0.00 0.00 85 1009.7
20260505083248 23 192 3.2 4.8 0.00 0.00 0.00 85 1009.7
20260505082744 23 213 0.0 1.6 0.00 0.00 0.00 85 1009.8
20260505082241 23 209 1.6 3.2 0.00 0.00 0.00 85 1009.8
20260505081737 23 136 3.2 4.8 0.00 0.00 0.00 85 1009.8
20260505081235 22 237 6.4 11.3 0.00 0.00 0.00 85 1009.9
20260505080731 22 224 1.6 4.8 0.00 0.00 0.00 85 1009.7
20260505080227 22 283 3.2 4.8 0.00 0.00 0.00 85 1010.1
20260505075723 22 230 0.0 1.6 0.00 0.00 0.00 85 1009.9
20260505075220 22 255 1.6 3.2 0.00 0.00 0.00 85 1009.9
20260505074717 22 292 0.0 1.6 0.00 0.00 0.00 85 1010.1
20260505074214 22 192 3.2 3.2 0.00 0.00 0.00 85 1010.0
20260505073712 22 227 0.0 6.4 0.00 0.00 0.00 85 1009.9
20260505073210 22 205 1.6 3.2 0.00 0.00 0.00 85 1010.0
20260505072705 22 178 1.6 1.6 0.00 0.00 0.00 85 1010.2
20260505072202 22 198 0.0 3.2 0.00 0.00 0.00 84 1010.2
20260505071657 22 192 1.6 1.6 0.00 0.00 0.00 84 1010.2
20260505071155 22 225 1.6 3.2 0.00 0.00 0.00 84 1010.3
20260505070653 22 238 1.6 3.2 0.00 0.00 0.00 85 1010.3
20260505070148 22 159 1.6 6.4 0.00 0.00 0.00 85 1010.5
20260505065645 22 167 1.6 3.2 0.00 0.00 0.00 85 1010.5
20260505065142 22 171 0.0 3.2 0.00 0.00 0.00 85 1010.7
20260505064638 22 208 1.6 4.8 0.00 0.00 0.00 85 1010.6
20260505064136 22 220 1.6 3.2 0.00 0.00 0.00 85 1010.8
20260505063634 22 232 0.0 1.6 0.00 0.00 0.00 85 1010.7
20260505063130 22 240 1.6 3.2 0.00 0.00 0.00 85 1011.0
20260505062626 22 199 0.0 1.6 0.00 0.00 0.00 84 1011.1
20260505062124 22 221 0.0 3.2 0.00 0.00 0.00 84 1010.9
20260505061621 22 225 0.0 3.2 0.00 0.00 0.00 84 1011.1
20260505061119 22 198 0.0 4.8 0.00 0.00 0.00 84 1011.3
20260505060616 22 181 3.2 4.8 0.00 0.00 0.00 84 1011.2
20260505060113 22 190 3.2 6.4 0.00 0.00 0.00 84 1011.2
20260505055608 22 204 1.6 3.2 0.00 0.00 0.00 83 1011.2
20260505055105 22 230 1.6 3.2 0.00 0.00 0.00 83 1011.3
20260505054602 22 185 1.6 3.2 0.00 0.00 0.00 84 1011.3
20260505054100 22 240 1.6 4.8 0.00 0.00 0.00 83 1011.4
20260505053557 22 235 1.6 3.2 0.00 0.00 0.00 83 1011.2
20260505053053 22 293 0.0 3.2 0.00 0.00 0.00 83 1011.2
20260505052550 22 197 3.2 3.2 0.00 0.00 0.00 83 1011.2
20260505052048 22 230 0.0 0.0 0.00 0.00 0.00 83 1011.4
20260505051544 22 207 0.0 3.2 0.00 0.00 0.00 83 1011.3
20260505051043 22 223 0.0 4.8 0.00 0.00 0.00 83 1011.5
20260505050541 22 200 0.0 4.8 0.00 0.00 0.00 83 1011.3
20260505041508 22 196 0.0 1.6 0.00 0.00 0.00 81 1011.9
20260505041006 22 165 0.0 3.2 0.00 0.00 0.00 81 1011.7
20260505040503 22 189 0.0 1.6 0.00 0.00 0.00 81 1011.8
20260505040000 22 213 0.0 4.8 0.00 0.00 0.00 80 1011.8
20260505035455 22 210 0.0 4.8 0.00 0.00 0.00 80 1011.9
20260505034953 22 284 0.0 1.6 0.00 0.00 0.00 80 1012.0
20260505034449 22 187 0.0 1.6 0.00 0.00 0.00 80 1012.0
20260505033947 22 244 0.0 6.4 0.00 0.00 0.00 80 1012.0
20260505033443 22 204 0.0 3.2 0.00 0.00 0.00 79 1012.0
20260505032941 22 208 1.6 4.8 0.00 0.00 0.00 79 1011.9
20260505032439 22 177 1.6 1.6 0.00 0.00 0.00 79 1011.9
20260505031935 22 193 1.6 3.2 0.00 0.00 0.00 78 1011.9
20260505031432 22 213 0.0 3.2 0.00 0.00 0.00 78 1011.9
20260505030929 22 196 0.0 3.2 0.00 0.00 0.00 78 1011.9
20260505030424 22 208 0.0 3.2 0.00 0.00 0.00 77 1011.9
20260505025920 22 229 4.8 6.4 0.00 0.00 0.00 77 1012.0
20260505025418 22 192 0.0 3.2 0.00 0.00 0.00 77 1011.9
20260505024917 22 215 0.0 1.6 0.00 0.00 0.00 77 1012.0
20260505024414 22 217 1.6 3.2 0.00 0.00 0.00 77 1011.8
20260505023910 22 114 0.0 6.4 0.00 0.00 0.00 77 1011.9
20260505023408 22 154 1.6 3.2 0.00 0.00 0.00 76 1011.8
20260505022905 22 184 1.6 4.8 0.00 0.00 0.00 76 1011.9
20260505022402 22 208 0.0 1.6 0.00 0.00 0.00 76 1012.0
20260505021859 22 210 3.2 3.2 0.00 0.00 0.00 76 1011.9
20260505021355 22 277 0.0 3.2 0.00 0.00 0.00 75 1011.6
20260505020851 23 201 1.6 4.8 0.00 0.00 0.00 75 1011.7
20260505020347 23 213 3.2 4.8 0.00 0.00 0.00 75 1011.9
20260505015844 23 115 3.2 4.8 0.00 0.00 0.00 74 1011.9
20260505015341 23 168 1.6 4.8 0.00 0.00 0.00 74 1011.6
20260505014838 23 248 0.0 3.2 0.00 0.00 0.00 74 1011.6
20260505014335 23 220 0.0 9.7 0.00 0.00 0.00 74 1011.6
20260505013832 23 191 1.6 3.2 0.00 0.00 0.00 74 1011.5
20260505013329 23 110 1.6 4.8 0.00 0.00 0.00 74 1011.5
20260505012828 23 289 0.0 6.4 0.00 0.00 0.00 74 1011.4
20260505012325 23 196 1.6 1.6 0.00 0.00 0.00 74 1011.7
20260505011820 23 204 0.0 0.0 0.00 0.00 0.00 74 1011.7
20260505011318 23 118 3.2 6.4 0.00 0.00 0.00 73 1011.5
20260505010814 23 160 0.0 4.8 0.00 0.00 0.00 73 1011.7
20260505010310 23 159 3.2 4.8 0.00 0.00 0.00 72 1011.6
20260505005806 23 220 1.6 6.4 0.00 0.00 0.00 72 1011.3
20260505005304 23 213 1.6 9.7 0.00 0.00 0.00 71 1011.3
20260505004801 23 124 3.2 4.8 0.00 0.00 0.00 71 1011.4
20260505004256 23 245 1.6 3.2 0.00 0.00 0.00 70 1011.4
20260505003754 23 230 3.2 4.8 0.00 0.00 0.00 70 1011.3
20260505003251 23 120 1.6 9.7 0.00 0.00 0.00 70 1011.3
20260505002748 23 241 3.2 6.4 0.00 0.00 0.00 69 1011.2
20260505002245 24 255 3.2 16.1 0.00 0.00 0.00 68 1011.3
20260505001743 24 140 8.0 16.1 0.00 0.00 0.00 68 1011.5
20260505001240 24 227 0.0 6.4 0.00 0.00 0.00 68 1011.6
20260505000737 25 208 1.6 4.8 0.00 0.00 0.00 68 1011.7
20260505000235 25 299 3.2 4.8 0.00 0.00 0.00 68 1011.5
20260504235731 25 145 3.2 4.8 0.00 0.00 0.00 68 1011.6
20260504235227 24 117 1.6 9.7 0.00 0.00 0.00 68 1011.5
20260504234725 24 294 3.2 9.7 0.00 0.00 0.00 68 1011.3
20260504234222 25 195 1.6 9.7 0.00 0.00 0.00 68 1011.6
20260504233718 25 78 3.2 4.8 0.00 0.00 0.00 67 1011.8
20260504233214 25 228 4.8 9.7 0.00 0.00 0.00 67 1011.6
20260504232711 25 205 4.8 11.3 0.00 0.00 0.00 66 1011.8
20260504232208 25 204 3.2 9.7 0.00 0.00 0.00 67 1011.8
20260504231705 25 225 0.0 4.8 0.00 0.00 0.00 68 1011.8
20260504231201 25 187 4.8 6.4 0.00 0.00 0.00 67 1011.9
20260504230657 25 230 0.0 4.8 0.00 0.00 0.00 68 1012.0
20260504230156 25 175 3.2 4.8 0.00 0.00 0.00 67 1012.2
20260504225654 25 166 6.4 11.3 0.00 0.00 0.00 66 1012.1
20260504225149 25 245 1.6 6.4 0.00 0.00 0.00 66 1012.1
20260504224647 25 219 1.6 9.7 0.00 0.00 0.00 66 1012.2
20260504224144 25 122 1.6 1.6 0.00 0.00 0.00 67 1012.1
20260504223641 25 244 0.0 11.3 0.00 0.00 0.00 66 1012.2
20260504223136 25 142 1.6 4.8 0.00 0.00 0.00 66 1012.3
20260504222634 25 213 1.6 4.8 0.00 0.00 0.00 65 1012.4
20260504222131 25 229 3.2 9.7 0.00 0.00 0.00 65 1012.6
20260504221628 25 158 1.6 11.3 0.00 0.00 0.00 65 1012.6
20260504221125 25 252 3.2 11.3 0.00 0.00 0.00 64 1012.6
20260504220621 25 244 3.2 6.4 0.00 0.00 0.00 64 1012.7
20260504220119 25 245 0.0 6.4 0.00 0.00 0.00 64 1012.6
20260504215615 25 187 1.6 3.2 0.00 0.00 0.00 64 1012.5
20260504215113 25 221 3.2 6.4 0.00 0.00 0.00 63 1012.7
20260504214608 25 81 1.6 4.8 0.00 0.00 0.00 64 1012.8
20260504214105 25 218 3.2 11.3 0.00 0.00 0.00 63 1012.8
20260504213601 26 216 3.2 4.8 0.00 0.00 0.00 63 1012.9
20260504213058 26 275 1.6 6.4 0.00 0.00 0.00 62 1012.8
20260504212554 26 199 3.2 6.4 0.00 0.00 0.00 62 1012.9
20260504212052 26 245 1.6 4.8 0.00 0.00 0.00 62 1012.9
20260504211548 26 213 3.2 4.8 0.00 0.00 0.00 61 1012.8
20260504211045 26 125 3.2 9.7 0.00 0.00 0.00 60 1013.1
20260504210542 27 167 4.8 6.4 0.00 0.00 0.00 58 1013.1
20260504210039 27 169 3.2 9.7 0.00 0.00 0.00 57 1013.1
20260504205537 27 301 1.6 4.8 0.00 0.00 0.00 58 1013.1
20260504205035 27 108 1.6 3.2 0.00 0.00 0.00 58 1013.1
20260504204532 27 128 1.6 11.3 0.00 0.00 0.00 57 1013.3
20260504204031 27 241 1.6 4.8 0.00 0.00 0.00 57 1013.4
20260504203529 27 254 1.6 6.4 0.00 0.00 0.00 57 1013.4
20260504203026 27 257 3.2 4.8 0.00 0.00 0.00 57 1013.3
20260504202521 27 195 1.6 3.2 0.00 0.00 0.00 57 1013.7
20260504202019 27 76 1.6 4.8 0.00 0.00 0.00 57 1013.5
20260504201516 27 234 3.2 4.8 0.00 0.00 0.00 56 1013.8
20260504201014 27 190 4.8 9.7 0.00 0.00 0.00 57 1013.6
20260504200510 27 300 0.0 9.7 0.00 0.00 0.00 58 1013.8
20260504200007 27 144 0.0 4.8 0.00 0.00 0.00 57 1013.9
20260504195503 27 288 1.6 9.7 0.00 0.00 0.00 57 1014.0
20260504194959 27 319 0.0 3.2 0.00 0.00 0.00 57 1014.1
20260504194455 27 130 4.8 11.3 0.00 0.00 0.00 56 1013.8
20260504193951 27 267 1.6 4.8 0.00 0.00 0.00 56 1014.1
20260504193449 27 276 1.6 1.6 0.00 0.00 0.00 56 1014.2
20260504192947 27 264 1.6 4.8 0.00 0.00 0.00 58 1014.4
20260504192444 27 272 4.8 9.7 0.00 0.00 0.00 55 1014.5
20260504191943 27 282 4.8 12.9 0.00 0.00 0.00 54 1014.3
20260504191441 28 216 4.8 11.3 0.00 0.00 0.00 53 1014.4
20260504190935 28 194 1.6 3.2 0.00 0.00 0.00 56 1014.5
20260504190431 28 312 1.6 4.8 0.00 0.00 0.00 52 1014.4
20260504185928 27 125 3.2 6.4 0.00 0.00 0.00 56 1014.3
20260504185426 27 250 1.6 9.7 0.00 0.00 0.00 55 1014.6
20260504184921 27 200 1.6 4.8 0.00 0.00 0.00 56 1014.6
20260504184417 27 58 1.6 11.3 0.00 0.00 0.00 55 1014.5
20260504183913 27 252 3.2 4.8 0.00 0.00 0.00 55 1014.3
20260504183411 27 189 6.4 9.7 0.00 0.00 0.00 54 1014.5
20260504182909 27 154 3.2 6.4 0.00 0.00 0.00 53 1014.6
20260504182405 27 274 0.0 11.3 0.00 0.00 0.00 54 1014.8
20260504181902 27 152 1.6 9.7 0.00 0.00 0.00 55 1014.9
20260504181359 27 210 4.8 11.3 0.00 0.00 0.00 55 1015.1
20260504180858 27 290 3.2 3.2 0.00 0.00 0.00 57 1015.0
20260504180356 27 225 4.8 6.4 0.00 0.00 0.00 57 1015.1
20260504175854 27 127 3.2 6.4 0.00 0.00 0.00 57 1015.1
20260504175350 27 126 4.8 9.7 0.00 0.00 0.00 55 1015.2
20260504174849 27 182 3.2 12.9 0.00 0.00 0.00 56 1015.2
20260504174346 26 18 0.0 9.7 0.00 0.00 0.00 57 1015.2
20260504173843 27 144 3.2 4.8 0.00 0.00 0.00 54 1015.4
20260504173340 26 234 1.6 4.8 0.00 0.00 0.00 53 1015.6
20260504172837 26 148 6.4 9.7 0.00 0.00 0.00 55 1015.6
20260504172333 27 241 1.6 9.7 0.00 0.00 0.00 55 1015.4
20260504171829 27 176 8.0 14.5 0.00 0.00 0.00 54 1015.7
20260504171326 26 234 1.6 9.7 0.00 0.00 0.00 58 1015.6
20260504170824 26 213 3.2 11.3 0.00 0.00 0.00 57 1015.7
20260504170320 26 145 4.8 6.4 0.00 0.00 0.00 57 1015.8
20260504160238 25 240 4.8 6.4 0.00 0.00 0.00 58 1016.5
20260504150704 24 84 3.2 9.7 0.00 0.00 0.00 64 1016.5
20260504150201 23 245 3.2 4.8 0.00 0.00 0.00 65 1016.6